Torna al catalogo

BLACKJACK ACES-3

AttivoMilitareSSO
NORAD 56950·PAYLOAD·🇺🇸 United States

Lanciato Jun 12, 2023 da Vandenberg Space Force Base

Loading…

Prossimi Passaggi (prossime 24 ore)

TLE

AggiornatoSource: Space-Track

Epoca: Sep 13, 2026, 21:59 UTC

1 56950U 23084U   26256.91664638  .00004031  00000-0  19724-3 0  9990
2 56950  97.6339  32.8824 0002849  86.9597 273.1963 15.18781404180636

Traccia BLACKJACK ACES-3 in tempo reale con AllMySat

Download on the App Store